2024-170A (61195 NORAD) Tracking and Keplerian Element Data

This shows tracking and keplerian element data for the satellite.

Feedback or suggestion? Click here.




ElementValue
Catalog61195
Name2024-170A
Epoch Orbit314
Epoch Day286.71641854
Epoch Year2024
RAAN357.7946
Inclination44.8581
Eccentricity0.0006173
Argument of Perigee28.419
Mean Anonmoly331.6982
Mean Motion14.13411988
Decay Rate1.503E-05
L11 61195U 24170A 24286.71641854 .00001503 00000+0 86368-3 0 9996
L22 61195 44.8581 357.7946 0006173 28.4190 331.6982 14.13411988 3146



Live tracking and technical data element details for 2024-170A (NORAD 61195). 2024-170A can be tracked NOW for your location showing map with azimuth and elevation plus other details from your city location.







IsCatalogInMostPopularTable: catalog: 61195, numindb: 23
Update: records affected: 1



GetName: 61195 2024-170A

Hit Count: updated at: Fri, 06 Dec 2024 10:37:41 GMT